When you browse on this site, cookies collect data to enhance your experience and personalize the content and advertising you see.
Visit our Privacy Policy to learn more. By continuing to use the site, you agree to this use of cookies and data.
  • în România
  • Lista ţărilor
  • Pe 7 zile
  • Temperatura apei
  • Meteo pe hartă
  • Widget-uri
  • user-avatar
    Intrare

    Meteo pe oră la Nazaret

    Astăzi, 31 Martie, Marţi

    Timp Temperatura Precipitaţii Vânt Presiune Umiditate
    00:00 +16°C° 0 mm 2 m/s 726 mmHg 50%
    01:00 +16°C° 0 mm 3 m/s 726 mmHg 50%
    02:00 +16°C° 0 mm 3 m/s 725 mmHg 47%
    03:00 +16°C° 0 mm 3 m/s 725 mmHg 46%
    04:00 +16°C° 0 mm 3 m/s 725 mmHg 45%
    05:00 +15°C° 0 mm 4 m/s 725 mmHg 44%
    06:00 +17°C° 0 mm 4 m/s 725 mmHg 46%
    07:00 +17°C° 0 mm 5 m/s 725 mmHg 48%
    08:00 +19°C° 0 mm 5 m/s 725 mmHg 50%
    09:00 +20°C° 0 mm 5 m/s 725 mmHg 46%
    10:00 +22°C° 0 mm 5 m/s 725 mmHg 42%
    11:00 +25°C° 0 mm 5 m/s 725 mmHg 39%
    12:00 +26°C° 0 mm 5 m/s 725 mmHg 37%
    13:00 +26°C° 0 mm 6 m/s 724 mmHg 35%
    14:00 +27°C° 0 mm 6 m/s 723 mmHg 34%
    15:00 +25°C° 0 mm 5 m/s 723 mmHg 40%
    16:00 +22°C° 0 mm 3 m/s 723 mmHg 46%
    17:00 +21°C° 0 mm 2 m/s 723 mmHg 53%
    18:00 +19°C° 0 mm 2 m/s 723 mmHg 63%
    19:00 +16°C° 0 mm 2 m/s 723 mmHg 73%
    20:00 +14°C° 0 mm 2 m/s 723 mmHg 83%
    21:00 +14°C° 0 mm 2 m/s 724 mmHg 86%
    22:00 +14°C° 0 mm 2 m/s 724 mmHg 89%
    23:00 +14°C° 0 mm 2 m/s 725 mmHg 92%

    Mâine, 1 Aprilie, Miercuri

    Timp Temperatura Precipitaţii Vânt Presiune Umiditate
    00:00 +13°C° 0 mm 2 m/s 725 mmHg 92%
    01:00 +13°C° 0 mm 2 m/s 724 mmHg 91%
    02:00 +13°C° 0 mm 2 m/s 724 mmHg 90%
    03:00 +12°C° 0.2 mm 3 m/s 724 mmHg 89%
    04:00 +12°C° 0.2 mm 3 m/s 724 mmHg 88%
    05:00 +12°C° 0.2 mm 4 m/s 724 mmHg 86%
    06:00 +13°C° 0.3 mm 5 m/s 725 mmHg 83%
    07:00 +14°C° 0.3 mm 6 m/s 725 mmHg 81%
    08:00 +15°C° 0.3 mm 7 m/s 725 mmHg 78%
    09:00 +15°C° 0.2 mm 7 m/s 725 mmHg 76%
    10:00 +16°C° 0.2 mm 7 m/s 726 mmHg 75%
    11:00 +16°C° 0.2 mm 8 m/s 726 mmHg 73%
    12:00 +16°C° 0.2 mm 8 m/s 726 mmHg 74%
    13:00 +16°C° 0.2 mm 8 m/s 726 mmHg 74%
    14:00 +16°C° 0.2 mm 8 m/s 726 mmHg 74%
    15:00 +16°C° 0.2 mm 7 m/s 726 mmHg 77%
    16:00 +15°C° 0.2 mm 7 m/s 726 mmHg 79%
    17:00 +15°C° 0.2 mm 6 m/s 726 mmHg 82%
    18:00 +14°C° 0.1 mm 5 m/s 727 mmHg 85%
    19:00 +13°C° 0.1 mm 4 m/s 727 mmHg 89%
    20:00 +12°C° 0.1 mm 3 m/s 727 mmHg 92%
    21:00 +13°C° 0 mm 2 m/s 727 mmHg 93%
    22:00 +13°C° 0 mm 2 m/s 727 mmHg 93%
    23:00 +12°C° 0 mm 2 m/s 727 mmHg 93%

    Poimâine, 2 Aprilie, Joi

    Timp Temperatura Precipitaţii Vânt Presiune Umiditate
    00:00 +12°C° 0.1 mm 2 m/s 727 mmHg 92%
    01:00 +13°C° 0.1 mm 1 m/s 727 mmHg 91%
    02:00 +13°C° 0.1 mm 1 m/s 727 mmHg 91%
    03:00 +12°C° 0.1 mm 1 m/s 727 mmHg 91%
    04:00 +12°C° 0.1 mm 1 m/s 728 mmHg 91%
    05:00 +11°C° 0.1 mm 1 m/s 728 mmHg 92%
    06:00 +13°C° 0 mm 1 m/s 728 mmHg 87%
    07:00 +14°C° 0 mm 2 m/s 728 mmHg 82%
    08:00 +15°C° 0 mm 2 m/s 729 mmHg 77%
    09:00 +16°C° 0 mm 2 m/s 729 mmHg 69%
    10:00 +17°C° 0 mm 3 m/s 729 mmHg 61%
    11:00 +18°C° 0 mm 3 m/s 729 mmHg 53%
    12:00 +18°C° 0 mm 3 m/s 729 mmHg 53%
    13:00 +18°C° 0 mm 4 m/s 729 mmHg 52%
    14:00 +17°C° 0 mm 5 m/s 728 mmHg 52%
    15:00 +17°C° 0 mm 4 m/s 728 mmHg 57%
    16:00 +15°C° 0 mm 4 m/s 728 mmHg 62%
    17:00 +16°C° 0 mm 3 m/s 728 mmHg 67%
    18:00 +14°C° 0 mm 2 m/s 728 mmHg 72%
    19:00 +13°C° 0 mm 2 m/s 728 mmHg 77%
    20:00 +11°C° 0 mm 1 m/s 729 mmHg 82%
    21:00 +11°C° 0 mm 1 m/s 729 mmHg 82%
    22:00 +10°C° 0 mm 0 m/s 729 mmHg 82%
    23:00 +10°C° 0 mm 0 m/s 729 mmHg 82%

    3 Aprilie, Vineri

    Timp Temperatura Precipitaţii Vânt Presiune Umiditate
    00:00 +10°C° 0 mm 0 m/s 728 mmHg 82%
    01:00 +9°C° 0 mm 0 m/s 728 mmHg 82%
    02:00 +9°C° 0 mm 0 m/s 728 mmHg 82%
    03:00 +9°C° 0 mm 0 m/s 728 mmHg 82%
    04:00 +10°C° 0 mm 1 m/s 728 mmHg 81%
    05:00 +10°C° 0 mm 1 m/s 728 mmHg 80%
    06:00 +11°C° 0 mm 1 m/s 729 mmHg 74%
    07:00 +13°C° 0 mm 1 m/s 729 mmHg 67%
    08:00 +15°C° 0 mm 1 m/s 729 mmHg 60%
    09:00 +16°C° 0 mm 1 m/s 730 mmHg 55%
    10:00 +19°C° 0 mm 1 m/s 730 mmHg 49%
    11:00 +21°C° 0 mm 1 m/s 730 mmHg 44%
    12:00 +20°C° 0 mm 2 m/s 730 mmHg 44%
    13:00 +21°C° 0 mm 2 m/s 730 mmHg 44%
    14:00 +21°C° 0 mm 3 m/s 730 mmHg 45%
    15:00 +20°C° 0 mm 3 m/s 730 mmHg 49%
    16:00 +19°C° 0 mm 2 m/s 729 mmHg 54%
    17:00 +18°C° 0 mm 2 m/s 729 mmHg 58%
    18:00 +16°C° 0 mm 2 m/s 729 mmHg 60%
    19:00 +15°C° 0 mm 2 m/s 730 mmHg 61%
    20:00 +14°C° 0 mm 1 m/s 730 mmHg 63%
    21:00 +14°C° 0 mm 1 m/s 730 mmHg 60%
    22:00 +14°C° 0 mm 1 m/s 730 mmHg 58%
    23:00 +14°C° 0 mm 2 m/s 730 mmHg 55%

    4 Aprilie, Sâmbătă

    Timp Temperatura Precipitaţii Vânt Presiune Umiditate
    00:00 +14°C° 0 mm 2 m/s 729 mmHg 55%
    01:00 +14°C° 0 mm 2 m/s 729 mmHg 55%
    02:00 +14°C° 0 mm 2 m/s 729 mmHg 55%
    03:00 +14°C° 0 mm 2 m/s 729 mmHg 54%
    04:00 +14°C° 0 mm 2 m/s 729 mmHg 53%
    05:00 +14°C° 0 mm 2 m/s 729 mmHg 52%
    06:00 +16°C° 0 mm 3 m/s 729 mmHg 51%
    07:00 +18°C° 0 mm 3 m/s 729 mmHg 50%
    08:00 +19°C° 0 mm 3 m/s 730 mmHg 49%
    09:00 +21°C° 0 mm 3 m/s 730 mmHg 45%
    10:00 +23°C° 0 mm 4 m/s 730 mmHg 42%
    11:00 +25°C° 0 mm 4 m/s 730 mmHg 38%
    12:00 +26°C° 0 mm 3 m/s 729 mmHg 35%
    13:00 +27°C° 0 mm 3 m/s 729 mmHg 33%
    14:00 +28°C° 0 mm 2 m/s 729 mmHg 30%
    15:00 +27°C° 0 mm 2 m/s 728 mmHg 35%
    16:00 +26°C° 0 mm 2 m/s 728 mmHg 40%
    17:00 +25°C° 0 mm 2 m/s 728 mmHg 45%
    18:00 +24°C° 0 mm 2 m/s 728 mmHg 44%
    19:00 +21°C° 0 mm 2 m/s 728 mmHg 43%
    20:00 +21°C° 0 mm 1 m/s 728 mmHg 42%
    21:00 +20°C° 0 mm 2 m/s 728 mmHg 41%
    22:00 +19°C° 0 mm 2 m/s 728 mmHg 40%
    23:00 +19°C° 0 mm 2 m/s 728 mmHg 39%

    5 Aprilie, Duminică

    Timp Temperatura Precipitaţii Vânt Presiune Umiditate
    00:00 +19°C° 0 mm 3 m/s 728 mmHg 39%
    01:00 +19°C° 0 mm 3 m/s 727 mmHg 38%
    02:00 +19°C° 0 mm 4 m/s 727 mmHg 37%
    03:00 +19°C° 0 mm 4 m/s 727 mmHg 38%
    04:00 +19°C° 0 mm 5 m/s 727 mmHg 39%
    05:00 +19°C° 0 mm 5 m/s 727 mmHg 40%
    06:00 +19°C° 0 mm 5 m/s 727 mmHg 42%
    07:00 +20°C° 0 mm 6 m/s 726 mmHg 44%
    08:00 +21°C° 0 mm 6 m/s 726 mmHg 46%
    09:00 +23°C° 0 mm 7 m/s 727 mmHg 42%
    10:00 +26°C° 0 mm 7 m/s 727 mmHg 37%
    11:00 +28°C° 0 mm 8 m/s 727 mmHg 32%
    12:00 +29°C° 0 mm 7 m/s 726 mmHg 31%
    13:00 +32°C° 0 mm 6 m/s 726 mmHg 29%
    14:00 +33°C° 0 mm 5 m/s 725 mmHg 27%
    15:00 +32°C° 0 mm 5 m/s 724 mmHg 31%
    16:00 +29°C° 0 mm 5 m/s 724 mmHg 34%
    17:00 +27°C° 0 mm 4 m/s 723 mmHg 37%
    18:00 +27°C° 0 mm 4 m/s 723 mmHg 33%
    19:00 +26°C° 0 mm 4 m/s 722 mmHg 30%
    20:00 +26°C° 0 mm 5 m/s 722 mmHg 26%
    21:00 +25°C° 0 mm 4 m/s 722 mmHg 28%
    22:00 +25°C° 0 mm 3 m/s 722 mmHg 29%
    23:00 +24°C° 0 mm 3 m/s 723 mmHg 30%
    Arată mai mult